Aérodrome :
LOGIN :

S'inscrire | Disclaimer

   EN    FR    IT 

 










Légende :    VFR   VFR Marginal   IFR   IFR Intensif   IFR Très Intensif
Visi : 
Plafond : 
>= 8 km
>= 3000ft
5 à 8 km
1000 à 3000 ft
1500m à 5 km
500 à 1000 ft
800 à 1500m
200 à 500 ft
< 800m
< 200 ft
Symboles :   Orages  Brouillard  Fortes neiges  Fortes précipitations  Vent > 20 kt
SIGMETs :   Divers  Orages  Givrage  Turbulence  Onde Orograph.  Cendres Volcan.






- Altitude de l'aérodrome : 302 ft


LFPM - Melun Villaroche

DERNIER METAR :
  • 212100Z AUTO 01005KT 340V040 9000 NSC 10/06 Q1018

METARs EXPIRÉS :
  • 212030Z AUTO 01005KT 350V050 CAVOK 10/06 Q1018
  • 212000Z AUTO 03005KT CAVOK 10/06 Q1018
  • 211930Z AUTO 03004KT 360V070 CAVOK 11/07 Q1017
  • 211900Z AUTO 02005KT CAVOK 12/07 Q1017
  • 211830Z AUTO 01006KT CAVOK 13/07 Q1017

Prévision TAF périmée.
ATIS : +33 1 64 14 28 44



MET'MAP, la Météo Aéronautique d'un coup d'oeil ! - Copyright ORBIFLY Décembre 2007 - Disclaimer

ORBIFLY MET'MAP TEAM :

Programmation & Développement : Alexandra Zaïnal
Sur une idée originale de : Baudouin d'Aumeries
Assistance à la programmation : Marc-Olivier Méhu
Soutien technique & logistique : Manuel Goepfert

Contact : metmap@orbifly.com




SOURCES & CREDITS :

   NOAA